Regional Weather Roundup
Issued by NWS

Home | Current Version | Previous Version | Text Only | Print | Product List | Glossary Off
Versions: 1 2 3 4 5 6 7 8 9 10 11 12 13 14 15 16 17 18 19 20 21 22 23 24 25 26 27 28 29 30 31 32 33 34 35 36 37 38 39 40 41 42 43 44 45 46 47 48 49 50

000
ASUS43 KMPX 222010
RWRMN
WEATHER ROUNDUP FOR MINNESOTA
NATIONAL WEATHER SERVICE TWIN CITIES/CHANHASSEN MN
200 PM CST MON JAN 22 2018


NOTE: "FAIR" INDICATES FEW OR NO CLOUDS BELOW 12,000 FEET WITH NO
SIGNIFICANT WEATHER AND/OR OBSTRUCTIONS TO VISIBILITY. N/A MEANS
CURRENT SKY AND/OR WEATHER CONDITIONS ARE NOT AVAILABLE.

MNZ060>063-068>070-222100-
   Twin Cities Metro

CITY           SKY/WX    TMP DP  RH WIND       PRES   REMARKS
TWIN CITIES    HVY SNOW  30  29  96 N17G25    29.66R VSB 1/4 WCI  18
ST PAUL        SNOW      30  29  96 N13       29.67S VSB 1/4 WCI  20
CRYSTAL        SNOW      29  24  82 N15G28    29.67S VSB 1/4 WCI  18
BLAINE         SNOW      30  30 100 N17G24    29.68F VSB 1/2 WCI  18
LAKEVILLE      HVY SNOW  28  28 100 N13       29.64S VSB<1/4 WCI  18
EDEN PRAIRIE   HVY SNOW  30  27  88 N12G28    29.65R VSB 1/4 WCI  20
SOUTH ST PAUL  LGT SNOW  31  30  97 N12G21    29.65R VSB 3/4 WCI  22
LAKE ELMO      SNOW      32  30  93 N14G24    29.66R VSB 1/2 WCI  22
$$
MNZ001>005-007-008-013>017-022>024-027-028-222100-
   Northwest Minnesota

CITY           SKY/WX    TMP DP  RH WIND       PRES   REMARKS
BEMIDJI        CLOUDY    24  22  89 NE12G17   29.93S WCI  13
HALLOCK        CLOUDY    27  21  80 NE9       30.06S WCI  17
ROSEAU         CLOUDY    25  19  80 NE12      30.03F WCI  14
WARROAD        CLOUDY    25  19  80 N12       30.04S WCI  14
THIEF RVR FALL CLOUDY    25  20  81 NE14G22   30.00S WCI  13
CROOKSTON      FAIR      27  21  80 NE10      30.01F WCI  17
FOSSTON        CLOUDY    23  19  86 NE10G20   29.96S WCI  12
DETROIT LAKES  CLOUDY    28  25  86 NE14      29.90F WCI  17
MOORHEAD       CLOUDY    27  23  86 N14       29.95F WCI  15
PARK RAPIDS    CLOUDY    27  21  78 NE16G28   29.87F WCI  15
$$
MNZ006-009>011-018-025>026-222100-
   North Central Minnesota

CITY           SKY/WX    TMP DP  RH WIND       PRES   REMARKS
BAUDETTE       CLOUDY    23  19  85 NE8       30.00F WCI  14
FLAG ISLAND    CLOUDY    21  16  79 N13       30.05S WCI   9
INTL FALLS     CLOUDY    20  16  84 NE8       29.99F WCI  10
WASKISH        CLOUDY    25  21  86 NE8       29.98S WCI  16
BIG FORK       CLOUDY    25  19  80 N7        29.94S WCI  17
LONGVILLE      CLOUDY    28  21  74 N8        29.88F WCI  20
GRAND RAPIDS   CLOUDY    25  20  81 NE9       29.91F WCI  15
CRANE LAKE     CLOUDY    19  14  79 N5        29.99F WCI  13
ORR            CLOUDY    21  14  73 CALM      29.92F
COOK           CLOUDY    21  18  86 NE6       29.93F WCI  14
$$
MNZ012-019>021-037-222100-
   Northeast Minnesota

CITY           SKY/WX    TMP DP  RH WIND       PRES   REMARKS
DULUTH         CLOUDY    23  21  92 NE16      29.85F WCI  10
ELY            CLOUDY    18  16  93 NE7       29.92F WCI   8
HIBBING        CLOUDY    23  18  81 NE12G20   29.89F WCI  12
EVELETH        CLOUDY    23  17  78 NE12G17   29.90F WCI  11
DULUTH HARBOR  CLOUDY    28  25  86 NE25G35   29.89F WCI  14
TWO HARBORS    CLOUDY    27  21  80 NE8       29.87F WCI  18
SILVER BAY     CLOUDY    25  23  93 NE6       29.88F WCI  18
GRAND MARAIS     N/A     27  18  69 E12       29.93F WCI  17
G MARAIS ARPRT CLOUDY    18  10  73 N14       29.88F WCI   4
$$
MNZ029>031-032-039>041-046>048-054>057-064-222100-
   West Central Minnesota

CITY           SKY/WX    TMP DP  RH WIND       PRES   REMARKS
FERGUS FALLS   CLOUDY    27  23  86 NE13G21   29.88S WCI  16
WHEATON        CLOUDY    28  23  80 N12G21    29.91R WCI  18
MORRIS         CLOUDY    30  25  80 N23       29.82F WCI  17
ALEXANDRIA     CLOUDY    29  23  78 NE20G26   29.81F WCI  16
ELBOW LAKE     CLOUDY    27  24  89 NE13G24   29.86S WCI  16
WADENA         CLOUDY    27  21  80 NE13G22   29.85F WCI  16
GLENWOOD       PTSUNNY   28  25  86 N24       29.79S WCI  14
APPLETON       CLOUDY    30  25  80 N22G29    29.82R WCI  17
BENSON         CLOUDY    30  23  74 NE18G26   29.82R WCI  18
ORTONVILLE     CLOUDY    28  23  80 N25       29.84S WCI  14
MADISON        CLOUDY    32  27  80 N22       29.83R WCI  19
WILLMAR        CLOUDY    28  25  86 NE24      29.80R WCI  14
$$
MNZ033>034-036-042>043-049>051-058-059-222100-
   Central Minnesota

CITY           SKY/WX    TMP DP  RH WIND       PRES   REMARKS
ST CLOUD       CLOUDY    28  24  85 N18G29    29.76F WCI  15
SAUK CENTRE      N/A     28  23  81 N16G23    29.79S WCI  16
PAYNESVILLE    CLOUDY    28  25  89 NE16G31   29.78R WCI  16
AITKIN         CLOUDY    27  21  80 NE12      29.83F WCI  16
PINE RIVER     CLOUDY    27  21  80 N10G18    29.89F WCI  17
BRAINERD       CLOUDY    30  23  75 NE17      29.83F WCI  18
STAPLES        CLOUDY    28  21  74 N16       29.84F WCI  17
LONG PRAIRIE   CLOUDY    28  25  86 N15G23    29.80F WCI  17
LITTLE FALLS   CLOUDY    28  21  74 NE8       29.80F WCI  20
LITCHFIELD     CLOUDY    28  27  93 N16G25    29.75R WCI  17
BUFFALO        LGT SNOW  29  25  83 N12G23    29.72S WCI  20
MAPLE LAKE     CLOUDY    30  26  85 MISG      29.74S
HUTCHINSON     LGT SNOW  30  27  90 N16G25    29.72S VSB 1   WCI  18
$$
MNZ037-044-045-052-053-222100-
   East Central Minnesota

CITY           SKY/WX    TMP DP  RH WIND       PRES   REMARKS
PRINCETON      CLOUDY    28  25  86 N14G23    29.75F WCI  17
MORA           CLOUDY    27  23  86 NE9G16    29.79F WCI  17
CAMBRIDGE      CLOUDY    30  21  69 N13G23    29.73F WCI  20
RUSH CITY      CLOUDY    28  24  84 N15G26    29.74F WCI  17
MOOSE LAKE     CLOUDY    25  23  93 NE14G26   29.81F FOG     WCI  13
HINCKLEY       CLOUDY    28  25  86 N15G26    29.78F WCI  17
CLOQUET        CLOUDY    23  21  93 NE13G20   29.84F WCI  11
MCGREGOR       CLOUDY    28  23  80 NE10G16   29.84F WCI  19
$$
MNZ071>073-080-081-089-090-097-098-222100-
   Southwest Minnesota

CITY           SKY/WX    TMP DP  RH WIND       PRES   REMARKS
MONTEVIDEO     CLOUDY    28  25  86 NE13      29.81R WCI  18
GRANITE FALLS  CLOUDY    31  26  79 N17G26    29.80S WCI  20
CANBY          CLOUDY    30  27  88 N16G24    29.83R WCI  18
MARSHALL       CLOUDY    28  25  88 N18       29.77S WCI  15
REDWOOD FALLS  LGT SNOW  28  26  92 N14G29    29.73F VSB 3/4 WCI  17
OLIVIA         CLOUDY    30  27  86 N23       29.74F WCI  17
PIPESTONE      CLOUDY    27  25  93 N18G28    29.72S WCI  13
WINDOM         CLOUDY    28  16  59 N32G38    29.62F WCI  12
WORTHINGTON    HVY SNOW  27  26  96 N35G43    29.61F VSB 1/4 WCI  10
JACKSON        CLOUDY    28  27  93 VRB31G37  29.58F VSB 1   WCI  12
TRACY          CLOUDY    29  27  92 N23       29.73S WCI  15
SLAYTON        CLOUDY    27  26  96 N26       29.69S WCI  11
$$
MNZ065>067-074>077-082>085-091>093-222100-
   South Central Minnesota

CITY           SKY/WX    TMP DP  RH WIND       PRES   REMARKS
MANKATO        HVY SNOW  29  29 100 N23       29.62F VSB 1/4 WCI  15
NEW ULM        CLOUDY    28  27  93 N15G25    29.66F WCI  17
ST JAMES       CLOUDY    28  28 100 N26G32    29.63F WCI  13
FAIRMONT       SNOW      29  28  96 N32       29.54F VSB 1/4 WCI  13
FARIBAULT      SNOW      30  30 100 N17G26    29.62S VSB 1/4 WCI  18
OWATONNA       CLOUDY    30  28  93 N20G26    29.58F WCI  18
WASECA         CLOUDY    32  30  93 N23G32    29.59F WCI  19
ALBERT LEA     SNOW      30  30 100 N23       29.51F VSB 1/4 WCI  17
$$
MNZ078>079-086>088-094>096-222100-
   Southeast Minnesota

CITY           SKY/WX    TMP DP  RH WIND       PRES   REMARKS
ROCHESTER      LGT SNOW  31  31 100 N20       29.51F VSB 3/4 WCI  19
RED WING       SNOW      32  28  86 NE8       29.62S VSB 1/2 WCI  25
STANTON        HVY SNOW  32  30  93 N21G26    29.61S VSB<1/4 WCI  19
DODGE CENTER   SNOW      30  30 100 N16       29.54S VSB 1/2 WCI  19
WINONA         LGT SNOW  34  32  93 N6        29.55F WCI  29
PRESTON        SNOW      32  31  96 NE16      29.47F VSB 1/2 WCI  21
$$
ABBREVIATIONS USED IN REMARKS
   TC - TEMPERATURES IN CELSIUS
  WCI - WIND CHILL INDEX
   HX - HEAT INDEX
  VSB - VISIBILITY
$$




USA.gov is the U.S. government's official web portal to all federal, state and local government web resources and services.